,,PA_Meas_PMT16A,,PR_Meas_QMR101_102,,RH_Meas_QMH101,,SR_Meas_QMS101,,TA_Meas_QMH101,,GenWind,,GenWind,
time,status,PA,status,PR,status,RH,status,SR,status,TA,status,DirAvg,status,SpdAvg,
2014-11-16, 00:00:04,VALID,918.036,VALID,0,VALID,96.8631,VALID,0,VALID,20.4454,VALID,287,VALID,0,
2014-11-16, 00:01:04,VALID,918.069,VALID,0,VALID,96.8555,VALID,0,VALID,20.4454,VALID,287,VALID,0,
2014-11-16, 00:02:04,VALID,918.035,VALID,0,VALID,96.8631,VALID,0,VALID,20.4049,VALID,287,VALID,0,
2014-11-16, 00:03:04,VALID,918.033,VALID,0,VALID,96.8784,VALID,0,VALID,20.4244,VALID,287,VALID,0,
2014-11-16, 00:04:04,VALID,918.03,VALID,0,VALID,96.8936,VALID,0,VALID,20.4244,VALID,287,VALID,0,
2014-11-16, 00:05:04,VALID,918.027,VALID,0,VALID,96.9089,VALID,0,VALID,20.4634,VALID,287,VALID,0,
2014-11-16, 00:06:04,VALID,918.034,VALID,0,VALID,96.9165,VALID,0.107441,VALID,20.4423,VALID,287,VALID,0,
2014-11-16, 00:07:04,VALID,918.024,VALID,0,VALID,96.9089,VALID,0,VALID,20.4423,VALID,286,VALID,0,
2014-11-16, 00:08:04,VALID,918.024,VALID,0,VALID,96.9241,VALID,0,VALID,20.4423,VALID,287,VALID,0,
2014-11-16, 00:09:04,VALID,918.004,VALID,0,VALID,96.947,VALID,0.107441,VALID,20.4618,VALID,287,VALID,0,
2014-11-16, 00:10:04,VALID,917.998,VALID,0,VALID,96.9546,VALID,0,VALID,20.4618,VALID,287,VALID,0,
2014-11-16, 00:11:04,VALID,917.982,VALID,0,VALID,96.9394,VALID,0.107441,VALID,20.4618,VALID,287,VALID,0,
2014-11-16, 00:12:04,VALID,917.994,VALID,0,VALID,96.9546,VALID,0.107441,VALID,20.4618,VALID,287,VALID,0,
2014-11-16, 00:13:04,VALID,917.959,VALID,0,VALID,96.9394,VALID,0.107441,VALID,20.4618,VALID,287,VALID,0,
2014-11-16, 00:14:04,VALID,917.939,VALID,0,VALID,96.9622,VALID,0.107441,VALID,20.4618,VALID,287,VALID,0,
2014-11-16, 00:15:04,VALID,917.948,VALID,0,VALID,96.9698,VALID,0.107441,VALID,20.4813,VALID,287,VALID,0,
2014-11-16, 00:16:04,VALID,917.899,VALID,0,VALID,96.9927,VALID,0.107441,VALID,20.4813,VALID,287,VALID,0,
2014-11-16, 00:17:04,VALID,917.921,VALID,0,VALID,96.9927,VALID,0.107441,VALID,20.5009,VALID,287,VALID,0,
2014-11-16, 00:18:04,VALID,917.91,VALID,0,VALID,97.0232,VALID,0.107441,VALID,20.4618,VALID,286,VALID,0,
2014-11-16, 00:19:04,VALID,917.895,VALID,0,VALID,97.0156,VALID,0.107441,VALID,20.4228,VALID,286,VALID,0,
2014-11-16, 00:20:04,VALID,917.87,VALID,0,VALID,97.008,VALID,0,VALID,20.4244,VALID,287,VALID,0,
2014-11-16, 00:21:04,VALID,917.871,VALID,0,VALID,97.0232,VALID,0,VALID,20.4244,VALID,286,VALID,0,
2014-11-16, 00:22:04,VALID,917.835,VALID,0,VALID,97.0461,VALID,0,VALID,20.4049,VALID,287,VALID,0,
2014-11-16, 00:23:04,VALID,917.832,VALID,0,VALID,97.0537,VALID,0,VALID,20.4049,VALID,287,VALID,0,
2014-11-16, 00:24:04,VALID,917.828,VALID,0,VALID,97.0766,VALID,0,VALID,20.3659,VALID,287,VALID,0,
2014-11-16, 00:25:04,VALID,917.8,VALID,0,VALID,97.0842,VALID,0,VALID,20.3854,VALID,287,VALID,0,
2014-11-16, 00:26:04,VALID,917.76,VALID,0,VALID,97.069,VALID,0,VALID,20.3659,VALID,287,VALID,0,
2014-11-16, 00:27:04,VALID,917.741,VALID,0,VALID,97.0918,VALID,0,VALID,20.3869,VALID,287,VALID,0,
2014-11-16, 00:28:04,VALID,917.71,VALID,0,VALID,97.0918,VALID,0,VALID,20.3479,VALID,287,VALID,0,
2014-11-16, 00:29:04,VALID,917.719,VALID,0,VALID,97.1147,VALID,0,VALID,20.3074,VALID,317,VALID,0,
2014-11-16, 00:30:04,VALID,917.68,VALID,0,VALID,97.0842,VALID,0,VALID,20.3089,VALID,317,VALID,0,
2014-11-16, 00:31:04,VALID,917.655,VALID,0,VALID,97.0918,VALID,0,VALID,20.2699,VALID,317,VALID,0,
2014-11-16, 00:32:04,VALID,917.639,VALID,0,VALID,97.0842,VALID,0,VALID,20.2278,VALID,317,VALID,0,
2014-11-16, 00:33:04,VALID,917.646,VALID,0,VALID,97.1147,VALID,0,VALID,20.2309,VALID,317,VALID,0,
2014-11-16, 00:34:04,VALID,917.632,VALID,0,VALID,97.1147,VALID,0,VALID,20.2293,VALID,317,VALID,0,
2014-11-16, 00:35:04,VALID,917.591,VALID,0,VALID,97.1299,VALID,0,VALID,20.2098,VALID,317,VALID,0,
2014-11-16, 00:36:04,VALID,917.564,VALID,0,VALID,97.1376,VALID,0,VALID,20.2098,VALID,317,VALID,0,
2014-11-16, 00:37:04,VALID,917.564,VALID,0,VALID,97.1681,VALID,0,VALID,20.2098,VALID,317,VALID,0,
2014-11-16, 00:38:04,VALID,917.514,VALID,0,VALID,97.1757,VALID,0,VALID,20.2098,VALID,317,VALID,0,
2014-11-16, 00:39:04,VALID,917.501,VALID,0,VALID,97.1909,VALID,0,VALID,20.1903,VALID,317,VALID,0,
2014-11-16, 00:40:04,VALID,917.45,VALID,0,VALID,97.229,VALID,0,VALID,20.1903,VALID,317,VALID,0,
2014-11-16, 00:41:04,VALID,917.441,VALID,0,VALID,97.229,VALID,0,VALID,20.1903,VALID,317,VALID,0,
2014-11-16, 00:42:04,VALID,917.392,VALID,0,VALID,97.2519,VALID,0,VALID,20.1708,VALID,317,VALID,0,
2014-11-16, 00:43:04,VALID,917.393,VALID,0,VALID,97.2595,VALID,0,VALID,20.1708,VALID,317,VALID,0,
2014-11-16, 00:44:04,VALID,917.364,VALID,0,VALID,97.29,VALID,0,VALID,20.1708,VALID,317,VALID,0,
2014-11-16, 00:45:04,VALID,917.342,VALID,0,VALID,97.3053,VALID,0,VALID,20.1498,VALID,317,VALID,0,
2014-11-16, 00:46:04,VALID,917.325,VALID,0,VALID,97.2977,VALID,0,VALID,20.1513,VALID,317,VALID,0,
2014-11-16, 00:47:04,VALID,917.286,VALID,0,VALID,97.3205,VALID,0,VALID,20.1318,VALID,317,VALID,0,
2014-11-16, 00:48:04,VALID,917.268,VALID,0,VALID,97.3205,VALID,0,VALID,20.1318,VALID,317,VALID,0,
2014-11-16, 00:49:04,VALID,917.262,VALID,0,VALID,97.3281,VALID,0,VALID,20.1513,VALID,317,VALID,0,
2014-11-16, 00:50:04,VALID,917.213,VALID,0,VALID,97.3358,VALID,0,VALID,20.1513,VALID,317,VALID,0,
2014-11-16, 00:51:04,VALID,917.177,VALID,0,VALID,97.3434,VALID,0,VALID,20.1318,VALID,317,VALID,0,
2014-11-16, 00:52:04,VALID,917.158,VALID,0,VALID,97.3663,VALID,0,VALID,20.1513,VALID,317,VALID,0,
2014-11-16, 00:53:04,VALID,917.135,VALID,0,VALID,97.3739,VALID,0,VALID,20.1318,VALID,317,VALID,0,
2014-11-16, 00:54:04,VALID,917.126,VALID,0,VALID,97.3739,VALID,0,VALID,20.1123,VALID,317,VALID,0,
2014-11-16, 00:55:04,VALID,917.108,VALID,0,VALID,97.3586,VALID,0,VALID,20.1318,VALID,317,VALID,0,
2014-11-16, 00:56:04,VALID,917.071,VALID,0,VALID,97.3663,VALID,0,VALID,20.1318,VALID,317,VALID,0,
2014-11-16, 00:57:04,VALID,917.073,VALID,0,VALID,97.3358,VALID,0,VALID,20.1318,VALID,317,VALID,0,
2014-11-16, 00:58:04,VALID,917.054,VALID,0,VALID,97.351,VALID,0,VALID,20.1318,VALID,317,VALID,0,
2014-11-16, 00:59:04,VALID,917.01,VALID,0,VALID,97.3129,VALID,0,VALID,20.1318,VALID,317,VALID,0,
2014-11-16, 01:00:04,VALID,916.964,VALID,0,VALID,97.3053,VALID,0,VALID,20.1123,VALID,317,VALID,0,
2014-11-16, 01:01:04,VALID,916.945,VALID,0,VALID,97.2824,VALID,0,VALID,20.0733,VALID,317,VALID,0,
2014-11-16, 01:02:04,VALID,916.906,VALID,0,VALID,97.2595,VALID,0,VALID,20.0944,VALID,317,VALID,0,
2014-11-16, 01:03:04,VALID,916.893,VALID,0,VALID,97.2367,VALID,0,VALID,20.0538,VALID,317,VALID,0,
2014-11-16, 01:04:04,VALID,916.872,VALID,0,VALID,97.2519,VALID,0,VALID,20.0733,VALID,317,VALID,0,
2014-11-16, 01:05:04,VALID,916.851,VALID,0,VALID,97.229,VALID,0,VALID,20.0538,VALID,317,VALID,0,
2014-11-16, 01:06:04,VALID,916.814,VALID,0,VALID,97.229,VALID,0,VALID,20.0343,VALID,317,VALID,0,
2014-11-16, 01:07:04,VALID,916.84,VALID,0,VALID,97.2138,VALID,0,VALID,20.0343,VALID,317,VALID,0,
2014-11-16, 01:08:04,VALID,916.85,VALID,0,VALID,97.2214,VALID,0,VALID,20.0148,VALID,317,VALID,0,
2014-11-16, 01:09:04,VALID,916.823,VALID,0,VALID,97.2062,VALID,0,VALID,19.9953,VALID,317,VALID,0,
2014-11-16, 01:10:04,VALID,916.81,VALID,0,VALID,97.2062,VALID,0.107441,VALID,19.9953,VALID,317,VALID,0,
2014-11-16, 01:11:04,VALID,916.793,VALID,0,VALID,97.1833,VALID,0,VALID,19.9758,VALID,317,VALID,0,
2014-11-16, 01:12:04,VALID,916.793,VALID,0,VALID,97.2062,VALID,0,VALID,19.9563,VALID,317,VALID,0,
2014-11-16, 01:13:04,VALID,916.76,VALID,0,VALID,97.1909,VALID,0,VALID,19.9173,VALID,317,VALID,0,
2014-11-16, 01:14:04,VALID,916.73,VALID,0,VALID,97.1986,VALID,0,VALID,19.9173,VALID,317,VALID,0,
2014-11-16, 01:15:04,VALID,916.733,VALID,0,VALID,97.1757,VALID,0,VALID,19.8978,VALID,317,VALID,0,
2014-11-16, 01:16:04,VALID,916.725,VALID,0,VALID,97.1909,VALID,0,VALID,19.8798,VALID,317,VALID,0,
2014-11-16, 01:17:04,VALID,916.695,VALID,0,VALID,97.2138,VALID,0,VALID,19.8783,VALID,317,VALID,0,
2014-11-16, 01:18:04,VALID,916.68,VALID,0,VALID,97.2443,VALID,0,VALID,19.8798,VALID,317,VALID,0,
2014-11-16, 01:19:04,VALID,916.647,VALID,0,VALID,97.2748,VALID,0,VALID,19.8603,VALID,316,VALID,0,
2014-11-16, 01:20:04,VALID,916.645,VALID,0,VALID,97.29,VALID,0,VALID,19.8393,VALID,316,VALID,0,
2014-11-16, 01:21:04,VALID,916.628,VALID,0,VALID,97.3129,VALID,0,VALID,19.8213,VALID,317,VALID,0,
2014-11-16, 01:22:04,VALID,916.597,VALID,0,VALID,97.3205,VALID,0,VALID,19.8003,VALID,317,VALID,0,
2014-11-16, 01:23:04,VALID,916.615,VALID,0,VALID,97.3586,VALID,0,VALID,19.7808,VALID,317,VALID,0,
2014-11-16, 01:24:04,VALID,916.608,VALID,0,VALID,97.3663,VALID,0,VALID,19.8003,VALID,317,VALID,0,
2014-11-16, 01:25:04,VALID,916.58,VALID,0,VALID,97.3739,VALID,0,VALID,19.8018,VALID,317,VALID,0,
2014-11-16, 01:26:04,VALID,916.577,VALID,0,VALID,97.412,VALID,0,VALID,19.7808,VALID,317,VALID,0,
2014-11-16, 01:27:04,VALID,916.565,VALID,0,VALID,97.412,VALID,0,VALID,19.8018,VALID,317,VALID,0,
2014-11-16, 01:28:04,VALID,916.524,VALID,0,VALID,97.4349,VALID,0,VALID,19.7823,VALID,317,VALID,0,
2014-11-16, 01:29:04,VALID,916.501,VALID,0,VALID,97.4654,VALID,0,VALID,19.7628,VALID,317,VALID,0,
2014-11-16, 01:30:04,VALID,916.491,VALID,0,VALID,97.4882,VALID,0,VALID,19.7823,VALID,317,VALID,0,
2014-11-16, 01:31:04,VALID,916.464,VALID,0,VALID,97.4806,VALID,0,VALID,19.7223,VALID,317,VALID,0,
2014-11-16, 01:32:04,VALID,916.458,VALID,0,VALID,97.4959,VALID,0,VALID,19.7418,VALID,317,VALID,0,
2014-11-16, 01:33:04,VALID,916.464,VALID,0,VALID,97.5035,VALID,0,VALID,19.7433,VALID,317,VALID,0,
2014-11-16, 01:34:04,VALID,916.438,VALID,0,VALID,97.534,VALID,0,VALID,19.7433,VALID,317,VALID,0,
2014-11-16, 01:35:04,VALID,916.423,VALID,0,VALID,97.5416,VALID,0,VALID,19.7223,VALID,317,VALID,0,
2014-11-16, 01:36:04,VALID,916.415,VALID,0,VALID,97.534,VALID,0,VALID,19.7238,VALID,317,VALID,0,
2014-11-16, 01:37:04,VALID,916.408,VALID,0,VALID,97.5569,VALID,0,VALID,19.7238,VALID,317,VALID,0,
2014-11-16, 01:38:04,VALID,916.379,VALID,0,VALID,97.5645,VALID,0,VALID,19.7433,VALID,317,VALID,0,
2014-11-16, 01:39:04,VALID,916.404,VALID,0,VALID,97.5873,VALID,0,VALID,19.7028,VALID,317,VALID,0,
2014-11-16, 01:40:04,VALID,916.389,VALID,0,VALID,97.6102,VALID,0,VALID,19.7028,VALID,317,VALID,0,
2014-11-16, 01:41:04,VALID,916.362,VALID,0,VALID,97.6026,VALID,0,VALID,19.6638,VALID,317,VALID,0,
2014-11-16, 01:42:04,VALID,916.349,VALID,0,VALID,97.6255,VALID,0,VALID,19.6638,VALID,302,VALID,0,
2014-11-16, 01:43:04,VALID,916.347,VALID,0,VALID,97.6255,VALID,0,VALID,19.6653,VALID,287,VALID,0,
2014-11-16, 01:44:04,VALID,916.328,VALID,0,VALID,97.6331,VALID,0,VALID,19.6848,VALID,287,VALID,0,
2014-11-16, 01:45:04,VALID,916.311,VALID,0,VALID,97.6483,VALID,0,VALID,19.6443,VALID,174,VALID,0.818359,
2014-11-16, 01:46:04,VALID,916.295,VALID,0,VALID,97.656,VALID,0,VALID,19.6638,VALID,165,VALID,0.235156,
2014-11-16, 01:47:04,VALID,916.281,VALID,0,VALID,97.656,VALID,0,VALID,19.6848,VALID,167,VALID,0.290234,
2014-11-16, 01:48:04,VALID,916.287,VALID,0,VALID,97.656,VALID,0,VALID,19.6848,VALID,167,VALID,0,
2014-11-16, 01:49:04,VALID,916.274,VALID,0,VALID,97.6636,VALID,0,VALID,19.7043,VALID,163,VALID,0.666797,
2014-11-16, 01:50:04,VALID,916.277,VALID,0,VALID,97.6636,VALID,0,VALID,19.6848,VALID,162,VALID,0,
2014-11-16, 01:51:04,VALID,916.252,VALID,0,VALID,97.6788,VALID,0,VALID,19.7043,VALID,175,VALID,1.08086,
2014-11-16, 01:52:04,VALID,916.256,VALID,0,VALID,97.6941,VALID,0,VALID,19.6638,VALID,172,VALID,0.547656,
2014-11-16, 01:53:04,VALID,916.266,VALID,0,VALID,97.6788,VALID,0,VALID,19.6848,VALID,173,VALID,0.672266,
2014-11-16, 01:54:04,VALID,916.241,VALID,0,VALID,97.6865,VALID,0,VALID,19.6833,VALID,170,VALID,0.682031,
2014-11-16, 01:55:04,VALID,916.251,VALID,0,VALID,97.7017,VALID,0,VALID,19.6833,VALID,173,VALID,0,
2014-11-16, 01:56:04,VALID,916.221,VALID,0,VALID,97.7169,VALID,0,VALID,19.6848,VALID,174,VALID,0,
2014-11-16, 01:57:04,VALID,916.213,VALID,0,VALID,97.6941,VALID,0,VALID,19.6653,VALID,174,VALID,0,
2014-11-16, 01:58:04,VALID,916.205,VALID,0,VALID,97.7169,VALID,0,VALID,19.6848,VALID,174,VALID,0,
2014-11-16, 01:59:04,VALID,916.19,VALID,0,VALID,97.7093,VALID,0,VALID,19.6848,VALID,174,VALID,0,
2014-11-16, 02:00:04,VALID,916.186,VALID,0,VALID,97.7398,VALID,0,VALID,19.6458,VALID,174,VALID,0,
2014-11-16, 02:01:04,VALID,916.192,VALID,0,VALID,97.7246,VALID,0,VALID,19.6248,VALID,174,VALID,0,
2014-11-16, 02:02:04,VALID,916.171,VALID,0,VALID,97.7398,VALID,0,VALID,19.6458,VALID,174,VALID,0,
2014-11-16, 02:03:04,VALID,916.175,VALID,0,VALID,97.7322,VALID,0,VALID,19.6263,VALID,174,VALID,0,
2014-11-16, 02:04:04,VALID,916.176,VALID,0,VALID,97.7398,VALID,0,VALID,19.6248,VALID,174,VALID,0,
2014-11-16, 02:05:04,VALID,916.157,VALID,0,VALID,97.7551,VALID,0,VALID,19.6458,VALID,174,VALID,0,
2014-11-16, 02:06:04,VALID,916.176,VALID,0,VALID,97.7551,VALID,0,VALID,19.5858,VALID,174,VALID,0,
2014-11-16, 02:07:04,VALID,916.173,VALID,0,VALID,97.7627,VALID,0,VALID,19.6053,VALID,174,VALID,0,
2014-11-16, 02:08:04,VALID,916.162,VALID,0,VALID,97.7474,VALID,0,VALID,19.6263,VALID,174,VALID,0,
2014-11-16, 02:09:04,VALID,916.181,VALID,0,VALID,97.7474,VALID,0,VALID,19.6068,VALID,174,VALID,0,
2014-11-16, 02:10:04,VALID,916.158,VALID,0,VALID,97.7551,VALID,0,VALID,19.6053,VALID,174,VALID,0,
2014-11-16, 02:11:04,VALID,916.165,VALID,0,VALID,97.7703,VALID,0,VALID,19.6263,VALID,174,VALID,0,
2014-11-16, 02:12:04,VALID,916.128,VALID,0,VALID,97.7627,VALID,0,VALID,19.5873,VALID,174,VALID,0,
2014-11-16, 02:13:04,VALID,916.124,VALID,0,VALID,97.7856,VALID,0,VALID,19.5468,VALID,174,VALID,0,
2014-11-16, 02:14:04,VALID,916.109,VALID,0,VALID,97.7551,VALID,0,VALID,19.5663,VALID,174,VALID,0,
2014-11-16, 02:15:04,VALID,916.11,VALID,0,VALID,97.7779,VALID,0,VALID,19.5483,VALID,174,VALID,0,
2014-11-16, 02:16:04,VALID,916.066,VALID,0,VALID,97.7856,VALID,0,VALID,19.5483,VALID,174,VALID,0,
2014-11-16, 02:17:04,VALID,916.099,VALID,0,VALID,97.7779,VALID,0,VALID,19.5678,VALID,174,VALID,0,
2014-11-16, 02:18:04,VALID,916.088,VALID,0,VALID,97.7627,VALID,0,VALID,19.5483,VALID,174,VALID,0,
2014-11-16, 02:19:04,VALID,916.1,VALID,0,VALID,97.7779,VALID,0,VALID,19.5093,VALID,174,VALID,0,
2014-11-16, 02:20:04,VALID,916.069,VALID,0,VALID,97.8084,VALID,0,VALID,19.3923,VALID,174,VALID,0,
2014-11-16, 02:21:04,VALID,916.079,VALID,0,VALID,97.7627,VALID,0,VALID,19.2738,VALID,174,VALID,0,
2014-11-16, 02:22:04,VALID,916.05,VALID,0,VALID,97.7551,VALID,0,VALID,19.2168,VALID,174,VALID,0,
2014-11-16, 02:23:04,VALID,915.99,VALID,0,VALID,97.7551,VALID,0,VALID,19.1583,VALID,174,VALID,0,
2014-11-16, 02:24:04,VALID,916.004,VALID,0,VALID,97.7551,VALID,0,VALID,19.1388,VALID,174,VALID,0,
2014-11-16, 02:25:04,VALID,915.978,VALID,0,VALID,97.7322,VALID,0,VALID,19.1193,VALID,174,VALID,0,
2014-11-16, 02:26:04,VALID,915.924,VALID,0,VALID,97.7322,VALID,0,VALID,19.0803,VALID,174,VALID,0,
2014-11-16, 02:27:04,VALID,915.908,VALID,0,VALID,97.7169,VALID,0,VALID,19.0803,VALID,174,VALID,0,
2014-11-16, 02:28:04,VALID,915.883,VALID,0,VALID,97.7322,VALID,0,VALID,19.0803,VALID,174,VALID,0,
2014-11-16, 02:29:04,VALID,915.847,VALID,0,VALID,97.7627,VALID,0,VALID,19.0023,VALID,174,VALID,0,
2014-11-16, 02:30:04,VALID,915.817,VALID,0,VALID,97.7551,VALID,0,VALID,18.9633,VALID,162,VALID,0,
2014-11-16, 02:31:04,VALID,915.802,VALID,0,VALID,97.7474,VALID,0,VALID,18.9048,VALID,162,VALID,0,
2014-11-16, 02:32:04,VALID,915.764,VALID,0,VALID,97.7627,VALID,0,VALID,18.8658,VALID,162,VALID,0,
2014-11-16, 02:33:04,VALID,915.737,VALID,0,VALID,97.7703,VALID,0,VALID,18.8463,VALID,162,VALID,0,
2014-11-16, 02:34:04,VALID,915.68,VALID,0,VALID,97.7551,VALID,0,VALID,18.8853,VALID,162,VALID,0,
2014-11-16, 02:35:04,VALID,915.693,VALID,0,VALID,97.7856,VALID,0,VALID,18.8853,VALID,162,VALID,0,
2014-11-16, 02:36:04,VALID,915.699,VALID,0,VALID,97.7932,VALID,0,VALID,18.8658,VALID,162,VALID,0,
2014-11-16, 02:37:04,VALID,915.665,VALID,0,VALID,97.816,VALID,0,VALID,18.8839,VALID,162,VALID,0,
2014-11-16, 02:38:04,VALID,915.685,VALID,0,VALID,97.816,VALID,0,VALID,18.9243,VALID,162,VALID,0,
2014-11-16, 02:39:04,VALID,915.69,VALID,0,VALID,97.816,VALID,0,VALID,18.9633,VALID,162,VALID,0,
2014-11-16, 02:40:04,VALID,915.67,VALID,0,VALID,97.8237,VALID,0,VALID,18.9438,VALID,162,VALID,0,
2014-11-16, 02:41:04,VALID,915.672,VALID,0,VALID,97.8465,VALID,0,VALID,18.9633,VALID,162,VALID,0,
2014-11-16, 02:42:04,VALID,915.674,VALID,0,VALID,97.8237,VALID,0,VALID,18.9424,VALID,162,VALID,0,
2014-11-16, 02:43:04,VALID,915.65,VALID,0,VALID,97.8542,VALID,0,VALID,18.9633,VALID,162,VALID,0,
2014-11-16, 02:44:04,VALID,915.638,VALID,0,VALID,97.8389,VALID,0,VALID,19.0023,VALID,162,VALID,0,
2014-11-16, 02:45:04,VALID,915.663,VALID,0,VALID,97.8542,VALID,0,VALID,19.0023,VALID,162,VALID,0,
2014-11-16, 02:46:04,VALID,915.679,VALID,0,VALID,97.8542,VALID,0,VALID,19.0218,VALID,162,VALID,0,
2014-11-16, 02:47:04,VALID,915.694,VALID,0,VALID,97.8694,VALID,0,VALID,19.0608,VALID,162,VALID,0,
2014-11-16, 02:48:04,VALID,915.663,VALID,0,VALID,97.8618,VALID,0,VALID,19.0998,VALID,162,VALID,0,
2014-11-16, 02:49:04,VALID,915.696,VALID,0,VALID,97.8542,VALID,0,VALID,19.1388,VALID,162,VALID,0,
2014-11-16, 02:50:04,VALID,915.713,VALID,0,VALID,97.8618,VALID,0,VALID,19.1778,VALID,162,VALID,0,
2014-11-16, 02:51:04,VALID,915.678,VALID,0,VALID,97.8618,VALID,0,VALID,19.2168,VALID,162,VALID,0,
2014-11-16, 02:52:04,VALID,915.712,VALID,0,VALID,97.8694,VALID,0,VALID,19.2558,VALID,162,VALID,0,
2014-11-16, 02:53:04,VALID,915.675,VALID,0,VALID,97.8465,VALID,0,VALID,19.3143,VALID,162,VALID,0,
2014-11-16, 02:54:04,VALID,915.677,VALID,0,VALID,97.8542,VALID,0,VALID,19.3533,VALID,162,VALID,0,
2014-11-16, 02:55:04,VALID,915.655,VALID,0,VALID,97.8542,VALID,0,VALID,19.3923,VALID,162,VALID,0,
2014-11-16, 02:56:04,VALID,915.631,VALID,0,VALID,97.8542,VALID,0,VALID,19.3713,VALID,162,VALID,0,
2014-11-16, 02:57:04,VALID,915.649,VALID,0,VALID,97.877,VALID,0,VALID,19.3923,VALID,162,VALID,0,
2014-11-16, 02:58:04,VALID,915.641,VALID,0,VALID,97.8999,VALID,0,VALID,19.3728,VALID,162,VALID,0,
2014-11-16, 02:59:04,VALID,915.615,VALID,0,VALID,97.8694,VALID,0,VALID,19.3533,VALID,162,VALID,0,
2014-11-16, 03:00:04,VALID,915.611,VALID,0,VALID,97.877,VALID,0,VALID,19.3323,VALID,162,VALID,0,
2014-11-16, 03:01:04,VALID,915.636,VALID,0,VALID,97.877,VALID,0,VALID,19.3533,VALID,162,VALID,0,
2014-11-16, 03:02:04,VALID,915.624,VALID,0,VALID,97.877,VALID,0,VALID,19.2933,VALID,162,VALID,0,
2014-11-16, 03:03:04,VALID,915.591,VALID,0,VALID,97.8999,VALID,0,VALID,19.2753,VALID,162,VALID,0,
2014-11-16, 03:04:04,VALID,915.574,VALID,0,VALID,97.9075,VALID,0,VALID,19.2543,VALID,162,VALID,0,
2014-11-16, 03:05:04,VALID,915.585,VALID,0,VALID,97.877,VALID,0,VALID,19.2753,VALID,162,VALID,0,
2014-11-16, 03:06:04,VALID,915.588,VALID,0,VALID,97.9152,VALID,0,VALID,19.2753,VALID,162,VALID,0,
2014-11-16, 03:07:04,VALID,915.58,VALID,0,VALID,97.8999,VALID,0,VALID,19.2753,VALID,162,VALID,0,
2014-11-16, 03:08:04,VALID,915.547,VALID,0,VALID,97.8999,VALID,0,VALID,19.2558,VALID,162,VALID,0,
2014-11-16, 03:09:04,VALID,915.532,VALID,0,VALID,97.9228,VALID,0,VALID,19.2153,VALID,162,VALID,0,
2014-11-16, 03:10:04,VALID,915.53,VALID,0,VALID,97.9075,VALID,0,VALID,19.2363,VALID,162,VALID,0,
2014-11-16, 03:11:04,VALID,915.54,VALID,0,VALID,97.9152,VALID,0,VALID,19.2348,VALID,162,VALID,0,
2014-11-16, 03:12:05,VALID,915.496,VALID,0,VALID,97.9304,VALID,0,VALID,19.2753,VALID,162,VALID,0,
2014-11-16, 03:13:05,VALID,915.456,VALID,0,VALID,97.9228,VALID,0,VALID,19.2753,VALID,162,VALID,0,
2014-11-16, 03:14:05,VALID,915.485,VALID,0,VALID,97.8999,VALID,0,VALID,19.2543,VALID,162,VALID,0,
2014-11-16, 03:15:05,VALID,915.47,VALID,0,VALID,97.9228,VALID,0,VALID,19.2543,VALID,162,VALID,0,
2014-11-16, 03:16:05,VALID,915.471,VALID,0,VALID,97.9152,VALID,0,VALID,19.2753,VALID,162,VALID,0,
2014-11-16, 03:17:05,VALID,915.473,VALID,0,VALID,97.9075,VALID,0,VALID,19.2738,VALID,162,VALID,0,
2014-11-16, 03:18:05,VALID,915.476,VALID,0,VALID,97.9152,VALID,0,VALID,19.2948,VALID,162,VALID,0,
2014-11-16, 03:19:05,VALID,915.478,VALID,0,VALID,97.9152,VALID,0,VALID,19.3143,VALID,162,VALID,0,
2014-11-16, 03:20:05,VALID,915.448,VALID,0,VALID,97.9304,VALID,0,VALID,19.3128,VALID,162,VALID,0,
2014-11-16, 03:21:05,VALID,915.461,VALID,0,VALID,97.9152,VALID,0,VALID,19.3128,VALID,163,VALID,0,
2014-11-16, 03:22:05,VALID,915.486,VALID,0,VALID,97.9304,VALID,0,VALID,19.3533,VALID,163,VALID,0,
2014-11-16, 03:23:05,VALID,915.474,VALID,0,VALID,97.9304,VALID,0,VALID,19.3728,VALID,163,VALID,0,
2014-11-16, 03:24:05,VALID,915.438,VALID,0,VALID,97.9075,VALID,0,VALID,19.3728,VALID,163,VALID,0,
2014-11-16, 03:25:05,VALID,915.45,VALID,0,VALID,97.9075,VALID,0,VALID,19.3923,VALID,163,VALID,0,
2014-11-16, 03:26:05,VALID,915.456,VALID,0,VALID,97.9152,VALID,0,VALID,19.4103,VALID,163,VALID,0,
2014-11-16, 03:27:05,VALID,915.468,VALID,0,VALID,97.9075,VALID,0,VALID,19.4118,VALID,163,VALID,0,
2014-11-16, 03:28:05,VALID,915.464,VALID,0,VALID,97.938,VALID,0,VALID,19.3923,VALID,162,VALID,0,
2014-11-16, 03:29:05,VALID,915.494,VALID,0,VALID,97.9075,VALID,0,VALID,19.3923,VALID,162,VALID,0,
2014-11-16, 03:30:05,VALID,915.462,VALID,0,VALID,97.9228,VALID,0,VALID,19.3923,VALID,162,VALID,0,
2014-11-16, 03:31:05,VALID,915.459,VALID,0,VALID,97.9152,VALID,0,VALID,19.4118,VALID,162,VALID,0,
2014-11-16, 03:32:05,VALID,915.476,VALID,0,VALID,97.9304,VALID,0,VALID,19.3923,VALID,162,VALID,0,
2014-11-16, 03:33:05,VALID,915.471,VALID,0,VALID,97.9304,VALID,0,VALID,19.3728,VALID,162,VALID,0,
2014-11-16, 03:34:05,VALID,915.468,VALID,0,VALID,97.938,VALID,0,VALID,19.3728,VALID,162,VALID,0,
2014-11-16, 03:35:05,VALID,915.482,VALID,0,VALID,97.9228,VALID,0.107441,VALID,19.3713,VALID,162,VALID,0,
2014-11-16, 03:36:05,VALID,915.472,VALID,0,VALID,97.9456,VALID,0.107441,VALID,19.3908,VALID,162,VALID,0,
2014-11-16, 03:37:05,VALID,915.46,VALID,0,VALID,97.9228,VALID,0,VALID,19.3908,VALID,162,VALID,0,
2014-11-16, 03:38:05,VALID,915.477,VALID,0,VALID,97.9228,VALID,0.107441,VALID,19.4103,VALID,162,VALID,0,
2014-11-16, 03:39:05,VALID,915.471,VALID,0,VALID,97.9152,VALID,0,VALID,19.4298,VALID,162,VALID,0,
2014-11-16, 03:40:05,VALID,915.467,VALID,0,VALID,97.9304,VALID,0.107441,VALID,19.4493,VALID,162,VALID,0,
2014-11-16, 03:41:05,VALID,915.469,VALID,0,VALID,97.9228,VALID,0.107441,VALID,19.4688,VALID,162,VALID,0,
2014-11-16, 03:42:05,VALID,915.451,VALID,0,VALID,97.9152,VALID,0.107441,VALID,19.5078,VALID,162,VALID,0,
2014-11-16, 03:43:05,VALID,915.425,VALID,0,VALID,97.8999,VALID,0.107441,VALID,19.5468,VALID,162,VALID,0,
2014-11-16, 03:44:05,VALID,915.435,VALID,0,VALID,97.9075,VALID,0,VALID,19.5468,VALID,162,VALID,0,
2014-11-16, 03:45:05,VALID,915.425,VALID,0,VALID,97.8923,VALID,0.107441,VALID,19.5663,VALID,162,VALID,0,
2014-11-16, 03:46:05,VALID,915.42,VALID,0,VALID,97.9152,VALID,0.107441,VALID,19.5663,VALID,162,VALID,0,
2014-11-16, 03:47:05,VALID,915.395,VALID,0,VALID,97.9152,VALID,0.107441,VALID,19.5453,VALID,162,VALID,0,
2014-11-16, 03:48:05,VALID,915.375,VALID,0,VALID,97.9152,VALID,0.107441,VALID,19.5468,VALID,162,VALID,0,
2014-11-16, 03:49:05,VALID,915.357,VALID,0,VALID,97.9152,VALID,0.107441,VALID,19.5273,VALID,162,VALID,0,
2014-11-16, 03:50:05,VALID,915.338,VALID,0,VALID,97.9228,VALID,0,VALID,19.5078,VALID,162,VALID,0,
2014-11-16, 03:51:05,VALID,915.34,VALID,0,VALID,97.9304,VALID,0.107441,VALID,19.4883,VALID,162,VALID,0,
2014-11-16, 03:52:05,VALID,915.38,VALID,0,VALID,97.9152,VALID,0.107441,VALID,19.4883,VALID,162,VALID,0,
2014-11-16, 03:53:05,VALID,915.356,VALID,0,VALID,97.938,VALID,0,VALID,19.4688,VALID,253,VALID,0,
2014-11-16, 03:54:05,VALID,915.366,VALID,0,VALID,97.9456,VALID,0.107441,VALID,19.4493,VALID,278,VALID,0,
2014-11-16, 03:55:05,VALID,915.376,VALID,0,VALID,97.9609,VALID,0.107441,VALID,19.3908,VALID,278,VALID,0.225,
2014-11-16, 03:56:05,VALID,915.375,VALID,0,VALID,97.9685,VALID,0,VALID,19.3518,VALID,278,VALID,0,
2014-11-16, 03:57:05,VALID,915.364,VALID,0,VALID,97.9761,VALID,0,VALID,19.3323,VALID,278,VALID,0,